HK4D-13 Weather Reports


time (UTC)temp
C
wind
direction
speed
KPH
gust
KPH
rain 1hr
cm
rain 24hr
cm
rain mn
cm
humidity
%
barometer
mb
20260504150755 16 10 6.4 0.0 0.00 0.00 0.00 84 1015.0
20260504140751 15 330 1.6 0.0 0.00 0.00 0.00 93 1015.0
20260504130747 13 190 6.4 0.0 0.00 0.00 0.00 98 1016.0
20260504081717 14 40 8.0 0.0 0.00 0.00 0.00 96 1015.0
20260504080716 14 40 8.0 0.0 0.00 0.00 0.00 96 1015.0
20260504050659 15 10 8.0 0.0 0.10 0.00 0.00 93 1017.0
20260504045659 15 360 6.4 0.0 0.00 0.00 0.00 92 1017.0
20260504044658 15 360 6.4 0.0 0.03 0.00 0.00 92 1017.0
20260504043656 15 360 6.4 0.0 0.00 0.00 0.00 93 1017.0
20260504042652 15 360 6.4 0.0 0.00 0.00 0.00 92 1018.0
20260504041650 15 360 6.4 0.0 0.03 0.00 0.00 92 1018.0
20260504040650 16 10 6.4 0.0 0.00 0.00 0.00 94 1018.0
20260504035649 16 10 6.4 0.0 0.00 0.00 0.00 94 1018.0
20260504034649 16 10 6.4 0.0 0.03 0.00 0.00 94 1018.0
20260504033647 16 10 6.4 0.0 0.00 0.00 0.00 94 1018.0
20260504032647 16 10 6.4 0.0 0.00 0.00 0.00 94 1018.0
20260504031641 16 10 6.4 0.0 0.00 0.00 0.00 94 1018.0
20260504030641 16 10 6.4 0.0 0.00 0.00 0.00 94 1018.0
20260504025639 16 10 4.8 0.0 0.00 0.00 0.00 94 1018.0
20260504024639 16 10 4.8 0.0 0.00 0.00 0.00 94 1018.0
20260504023638 16 10 4.8 0.0 0.00 0.00 0.00 94 1018.0
20260504022638 16 10 4.8 0.0 0.00 0.00 0.00 94 1017.0
20260504021635 16 10 4.8 0.0 0.00 0.00 0.00 94 1017.0
20260504020635 16 10 4.8 0.0 0.00 0.00 0.00 94 1017.0
20260504015634 17 350 8.0 0.0 0.00 0.00 0.00 88 1017.0
20260504014632 17 350 8.0 0.0 0.00 0.00 0.00 88 1017.0
20260504013631 17 350 8.0 0.0 0.00 0.00 0.00 88 1017.0
20260504012624 17 350 8.0 0.0 0.00 0.00 0.00 88 1016.0
20260504011624 17 350 8.0 0.0 0.00 0.00 0.00 88 1016.0
20260504010622 17 350 8.0 0.0 0.00 0.00 0.00 88 1016.0
20260504005621 18 350 12.9 0.0 0.00 0.00 0.00 77 1016.0
20260504004620 18 350 12.9 0.0 0.00 0.00 0.00 77 1016.0
20260504003619 18 350 12.9 0.0 0.00 0.00 0.00 77 1016.0
20260504002619 18 350 12.9 0.0 0.00 0.00 0.00 77 1015.0
20260504001618 18 350 12.9 0.0 0.00 0.00 0.00 77 1015.0
20260504000618 18 350 12.9 0.0 0.00 0.00 0.00 77 1015.0
20260503235618 20 340 8.0 0.0 0.00 0.00 0.00 64 1015.0
20260503234617 20 340 8.0 0.0 0.00 0.00 0.00 64 1015.0
20260503233617 20 340 8.0 0.0 0.00 0.00 0.00 64 1015.0
20260503232616 20 340 8.0 0.0 0.00 0.00 0.00 64 1014.0
20260503231616 20 340 8.0 0.0 0.00 0.00 0.00 64 1014.0
20260503230614 20 340 8.0 0.0 0.00 0.00 0.00 64 1014.0
20260503225614 22 10 16.1 0.0 0.00 0.00 0.00 53 1014.0
20260503224612 22 10 16.1 0.0 0.00 0.00 0.00 53 1013.0
20260503223611 22 10 16.1 0.0 0.00 0.00 0.00 53 1013.0
20260503222608 22 10 16.1 0.0 0.00 0.00 0.00 53 1012.0
20260503221606 22 10 16.1 0.0 0.00 0.00 0.00 53 1012.0
20260503220605 22 10 16.1 0.0 0.00 0.00 0.00 53 1012.0
20260503215604 22 10 19.3 0.0 0.00 0.00 0.00 56 1012.0
20260503214602 22 10 19.3 0.0 0.00 0.00 0.00 56 1012.0
20260503213602 22 10 19.3 0.0 0.00 0.00 0.00 56 1012.0
20260503212602 21 10 19.3 0.0 0.00 0.00 0.00 58 1012.0
20260503211601 21 10 19.3 0.0 0.00 0.00 0.00 58 1012.0
20260503210600 21 10 19.3 0.0 0.00 0.00 0.00 57 1012.0
20260503205559 22 10 17.7 0.0 0.00 0.00 0.00 56 1012.0
20260503204559 22 10 17.7 0.0 0.00 0.00 0.00 56 1012.0
20260503203558 22 10 17.7 0.0 0.00 0.00 0.00 55 1012.0
20260503202557 22 10 17.7 0.0 0.00 0.00 0.00 56 1012.0
20260503201556 22 10 17.7 0.0 0.00 0.00 0.00 56 1012.0
20260503200556 21 0 9.7 0.0 0.00 0.00 0.00 59 1012.0
20260503195555 21 0 9.7 0.0 0.00 0.00 0.00 59 1012.0
20260503194555 21 0 9.7 0.0 0.00 0.00 0.00 58 1012.0
20260503193554 21 0 9.7 0.0 0.00 0.00 0.00 59 1012.0
20260503192553 21 0 9.7 0.0 0.00 0.00 0.00 59 1012.0
20260503191553 21 0 9.7 0.0 0.00 0.00 0.00 59 1012.0
20260503190552 21 0 9.7 0.0 0.00 0.00 0.00 59 1012.0
20260503185551 21 140 8.0 0.0 0.00 0.00 0.00 60 1012.0
20260503184551 21 140 8.0 0.0 0.00 0.00 0.00 60 1012.0
20260503183548 21 140 8.0 0.0 0.00 0.00 0.00 59 1012.0
20260503182543 21 140 8.0 0.0 0.00 0.00 0.00 59 1013.0
20260503181542 21 140 8.0 0.0 0.00 0.00 0.00 60 1013.0
20260503180541 21 140 8.0 0.0 0.00 0.00 0.00 60 1013.0
20260503175540 21 0 8.0 0.0 0.00 0.00 0.00 61 1013.0
20260503174540 21 0 8.0 0.0 0.00 0.00 0.00 61 1014.0
20260503173537 20 0 8.0 0.0 0.00 0.00 0.00 62 1014.0
20260503172537 20 0 8.0 0.0 0.00 0.00 0.00 63 1015.0
20260503171536 20 0 8.0 0.0 0.00 0.00 0.00 64 1015.0
20260503170535 20 0 8.0 0.0 0.00 0.00 0.00 66 1015.0